This is the latest recevied weather packets stored in our database for station/object KN6DHD. If no packets are shown the sender has not sent any weather packets the latest 10 day(s).
| Time | Temp. | Humidity | Pressure | Rain* | Wind** | Luminosity | Snow |
|---|---|---|---|---|---|---|---|
| 1777156195 | 16.67° C | 69% | 1010.7 hPa | 0 mm | - | 299 W/m² | - |
| 1777155891 | 16.11° C | 71% | 1010.7 hPa | 0 mm | - | 243 W/m² | - |
| 1777155586 | 16.67° C | 70% | 1011 hPa | 0 mm | - | 224 W/m² | - |
| 1777155284 | 16.11° C | 70% | 1010.8 hPa | 0 mm | - | 186 W/m² | - |
| 1777154981 | 16.11° C | 70% | 1010.9 hPa | 0 mm | - | 182 W/m² | - |
| 1777154678 | 16.67° C | 69% | 1010.9 hPa | 0 mm | - | 180 W/m² | - |
| 1777154374 | 16.11° C | 70% | 1010.8 hPa | 0 mm | - | 227 W/m² | - |
| 1777154069 | 16.11° C | 70% | 1011 hPa | 0 mm | - | 200 W/m² | - |
| 1777153766 | 16.11° C | 71% | 1011 hPa | 0 mm | - | 110 W/m² | - |
| 1777153462 | 16.11° C | 71% | 1011 hPa | 0 mm | - | 102 W/m² | - |
| 1777153158 | 16.11° C | 70% | 1011.2 hPa | 0 mm | - | 127 W/m² | - |
| 1777152855 | 16.11° C | 71% | 1011.1 hPa | 0 mm | - | 151 W/m² | - |
| 1777152550 | 15.56° C | 72% | 1011.1 hPa | 0 mm | - | 140 W/m² | - |
| 1777152248 | 16.11° C | 72% | 1011 hPa | 0 mm | - | 130 W/m² | - |
| 1777151942 | 16.11° C | 71% | 1011 hPa | 0 mm | - | 141 W/m² | - |
| 1777151638 | 16.11° C | 71% | 1011.1 hPa | 0 mm | - | 142 W/m² | - |
| 1777151336 | 16.67° C | 69% | 1011.1 hPa | 0 mm | - | 167 W/m² | - |
| 1777151035 | 17.22° C | 66% | 1011.2 hPa | 0 mm | - | 177 W/m² | - |
| 1777150730 | 17.22° C | 66% | 1011 hPa | 0 mm | - | 186 W/m² | - |
| 1777150426 | 16.67° C | 68% | 1011.1 hPa | 0 mm | - | 193 W/m² | - |
| 1777150123 | 17.22° C | 67% | 1011.1 hPa | 0 mm | - | 179 W/m² | - |
| 1777149818 | 16.67° C | 67% | 1011.2 hPa | 0 mm | - | 235 W/m² | - |
| 1777149516 | 16.67° C | 67% | 1011.1 hPa | 0 mm | - | 222 W/m² | - |
| 1777149211 | 16.67° C | 68% | 1011.4 hPa | 0 mm | - | 202 W/m² | - |
| 1777148906 | 16.67° C | 68% | 1011.4 hPa | 0 mm | - | 155 W/m² | - |
* Rain latest hour (hover to see other rain measurements)
** Current wind speed in m/s (hover to see current wind gust speed)